Location: Chimay
(50.0486°N, 4.3171°E)
Time: 17:53:11
(UTC+00:00)

Cosmos 1869 Rocket - Pass Details

Date: 08 August 2020
Orbit: 604 x 634 km, 82.5° (Epoch: 24 September)

Event Time Altitude Azimuth Distance (km) Brightness Sun altitude
Exits shadow 22:12:58 53° 187° (S) 776 3.7 -20.9°
Maximum altitude 22:14:01 89° 99° (E) 633 3.5 -21.0°
Drops below altitude 10° 22:18:30 10° 10° (N) 2,020 7.0 -21.2°
Sets 22:20:46 0° 11° (N) 2,936 7.9 -21.4°
